User: anonymous   Login
Location: Charleston
(38.3500°N, 81.6330°W)
Time: 18:44:21
(UTC-04:00)
Language:

Cosmos 2228 - Orbit

View from above orbital plane
View from above orbital plane
View from above satellite
View from above satellite

Ground track
Ground track

The orbit data is extracted from the following two-line orbital elements,

1 22286U 92094A   15242.48436384  .00000539  00000-0  57102-4 0  9994
2 22286 082.5195 273.0330 0021983 137.7436 222.5480 14.87075356224876
Epoch (UTC): 30 August 2015 11:37:29
Eccentricity: 0.0021983
inclination: 82.5195°
perigee height: 592 km
apogee height: 622 km
right ascension of ascending node: 273.0330°
argument of perigee: 137.7436°
revolutions per day: 14.87075356
mean anomaly at epoch: 222.5480°
orbit number at epoch: 22487

The dashed part of the orbit path shows where the satellite is in the earth's shadow,  

DLR